Tracking 18980 objects as of 21-Feb-2018
HD Live streaming from Space Station
objects crossing your sky now

NOAA 16 DEB

Track NOAA 16 DEB now!
10-day predictions


NORAD ID: 41344
Int'l Code: 2000-055HM
Perigee: 811.5 km
Apogee: 858.1 km
Inclination: 99.0 °
Period: 101.5 minutes
Semi major axis: 7205 km
RCS: Unknown
Launch date: September 21, 2000
Source: United States (US)
Launch site: AIR FORCE WESTERN TEST RANGE (AFWTR)

Note: This is SATELLITE DEBRIS
aabbcc
Your satellite tracking list
Your tracking list is empty




NASA's NSSDC Master Catalog

Two Line Element Set (TLE):
1 41344U 00055HM  18051.51874734  .00000800  00000-0  40114-3 0  9991
2 41344  99.0109 147.1443 0032323 281.6711  78.0837 14.19318473107067
Source of the keplerian elements: AFSPC